{"data":{"norad_id":46128,"epoch":"2026-05-24T21:10:13.312128Z","epoch_age_seconds":81164,"freshness":"FRESH","line1":"1 46128U 20057M   26144.88209852  .00129989  00000+0  69290-3 0  9990","line2":"2 46128  53.0163 206.3425 0006875  13.9768 346.1442 15.79517613319342","mean_motion":15.79517613,"eccentricity":0.0006875,"inclination_deg":53.0163,"raan_deg":206.3425,"arg_perigee_deg":13.9768,"mean_anomaly_deg":346.1442,"bstar":0.0006929,"rev_number":31934,"period_min":91.167074564302,"perigee_km":327.19335246993,"apogee_km":336.41952469798,"semimajor_km":6709.943438584,"source":"CELESTRAK","updated_at":"2026-05-25T13:38:16.466017Z"}}